Location: Felsheim
(48.7267°N, 10.7386°E)
Time: 01:54:47
(UTC+00:00)

Cosmos 1726 Rocket - Pass Details

Date: 09 April 2020
Orbit: 602 x 631 km, 82.5° (Epoch: 03 June)

Event Time Altitude Azimuth Distance (km) Brightness Sun altitude
Rises 18:55:50 0° 187° (S) 2,886 6.8 -9.5°
Reaches altitude 10° 18:58:02 10° 188° (S) 1,989 6.0 -9.8°
Maximum altitude 19:02:28 89° 94° (E) 634 3.6 -10.5°
Drops below altitude 10° 19:06:57 10° 10° (N) 2,019 6.4 -11.2°
Sets 19:09:12 0° 10° (N) 2,934 7.2 -11.5°
